QPF
0.00 0.00 0.00 0.00 0.00 0.00 0.00 0.00 0.00 0.00 0.00 0.00 0.00 0.00 0.00 0.00 0.00 0.00 0.00 0.00 0.00 0.00 0.00 0.00 0.00 0.00 0.00 0.00 0.00 0.00 0.00 0.00 0.00 0.00 0.00 0.00 0.00 0.01 0.09 0.10 0.03 0.05 0.04 0.04
0.00 0.00 0.00 0.00 0.00 0.00 0.00 0.00 0.00 0.00 0.00 0.00 0.00 0.00 0.00 0.00 0.00 0.00 0.00 0.00 0.00 0.00 0.00 0.00 0.00 0.00 0.00 0.00 0.00 0.00 0.00 0.00 0.00 0.00 0.00 0.00 0.00 0.02 0.07 0.18 0.07 0.04 0.00 0.00
0.00 0.00 0.00 0.00 0.00 0.00 0.00 0.00 0.00 0.00 0.00 0.00 0.00 0.00 0.00 0.00 0.00 0.00 0.00 0.00 0.00 0.00 0.00 0.00 0.00 0.00 0.00 0.00 0.00 0.00 0.00 0.00 0.00 0.00 0.00 0.00 0.03 0.05 0.15 0.09 0.00 0.00 0.00 0.00
0.00 0.00 0.00 0.00 0.00 0.00 0.00 0.00 0.00 0.00 0.00 0.00 0.00 0.00 0.00 0.00 0.00 0.00 0.00 0.00 0.00 0.00 0.00 0.00 0.00 0.00 0.00 0.00 0.00 0.00 0.00 0.00 0.00 0.00 0.00 0.00 0.04 0.02 0.00 0.03 0.01 0.00 0.00 0.00
0.00 0.00 0.00 0.00 0.00 0.00 0.00 0.00 0.00 0.00 0.00 0.00 0.00 0.00 0.00 0.00 0.00 0.00 0.00 0.00 0.00 0.00 0.00 0.00 0.00 0.00 0.00 0.00 0.00 0.00 0.00 0.00 0.00 0.00 0.00 0.00 0.01 0.00 0.00 0.03 0.00 0.00 0.00 0.00
0.00 0.00 0.00 0.00 0.00 0.00 0.00 0.00 0.00 0.00 0.00 0.00 0.00 0.00 0.00 0.00 0.00 0.00 0.00 0.00 0.00 0.00 0.00 0.00 0.00 0.00 0.00 0.00 0.00 0.00 0.00 0.00 0.00 0.00 0.00 0.00 0.00 0.00 0.00 0.00 0.00 0.00 0.00 0.00
0.00 0.00 0.00 0.00 0.00 0.00 0.00 0.00 0.00 0.00 0.00 0.00 0.00 0.00 0.00 0.00 0.00 0.00 0.00 0.00 0.00 0.00 0.00 0.00 0.00 0.00 0.00 0.00 0.00 0.00 0.00 0.00 0.00 0.00 0.00 0.00 0.00 0.00 0.03 0.03 0.04 0.00 0.00 0.01
0.00 0.00 0.00 0.00 0.00 0.00 0.00 0.00 0.00 0.00 0.00 0.00 0.00 0.00 0.00 0.00 0.00 0.00 0.00 0.00 0.00 0.00 0.00 0.00 0.00 0.00 0.00 0.00 0.00 0.00 0.00 0.00 0.00 0.00 0.00 0.00 0.00 0.00 0.08 0.12 0.08 0.06 0.08 0.06
0.00 0.00 0.00 0.00 0.00 0.00 0.00 0.00 0.00 0.00 0.00 0.00 0.00 0.00 0.00 0.00 0.00 0.00 0.00 0.00 0.00 0.00 0.00 0.00 0.00 0.00 0.00 0.00 0.00 0.00 0.00 0.00 0.00 0.00 0.06 0.08 0.09 0.10 0.15 0.08 0.07 0.17 0.35 0.17
0.00 0.00 0.00 0.00 0.00 0.00 0.00 0.00 0.00 0.00 0.00 0.00 0.00 0.00 0.00 0.00 0.00 0.00 0.00 0.00 0.00 0.00 0.00 0.00 0.00 0.00 0.00 0.00 0.00 0.00 0.00 0.03 0.11 0.33 0.39 0.40 0.31 0.29 0.26 0.13 0.12 0.23 0.22 0.13
0.00 0.00 0.00 0.00 0.00 0.00 0.00 0.00 0.00 0.00 0.00 0.00 0.00 0.00 0.00 0.00 0.00 0.00 0.00 0.00 0.00 0.00 0.00 0.00 0.00 0.00 0.01 0.01 0.00 0.01 0.03 0.17 0.37 0.43 0.29 0.17 0.16 0.21 0.20 0.02 0.01 0.02 0.02 0.05
0.00 0.00 0.00 0.00 0.00 0.00 0.00 0.00 0.00 0.00 0.00 0.00 0.00 0.00 0.00 0.00 0.00 0.00 0.00 0.00 0.00 0.00 0.00 0.00 0.00 0.00 0.00 0.00 0.00 0.00 0.03 0.04 0.05 0.05 0.03 0.02 0.03 0.04 0.03 0.02 0.03 0.02 0.02 0.04
0.00 0.00 0.00 0.00 0.00 0.00 0.00 0.00 0.00 0.00 0.00 0.00 0.00 0.00 0.00 0.00 0.00 0.00 0.00 0.00 0.00 0.00 0.00 0.00 0.00 0.00 0.00 0.00 0.00 0.00 0.00 0.01 0.01 0.02 0.03 0.04 0.03 0.01 0.00 0.03 0.07 0.08 0.06 0.04
0.00 0.00 0.00 0.00 0.00 0.00 0.00 0.00 0.00 0.00 0.00 0.00 0.00 0.00 0.00 0.00 0.00 0.00 0.00 0.00 0.00 0.00 0.00 0.00 0.00 0.00 0.00 0.00 0.00 0.00 0.00 0.00 0.00 0.05 0.09 0.05 0.05 0.03 0.04 0.04 0.08 0.07 0.08 0.04
0.00 0.00 0.00 0.00 0.00 0.00 0.00 0.00 0.00 0.00 0.00 0.00 0.00 0.00 0.00 0.00 0.00 0.00 0.00 0.00 0.00 0.00 0.00 0.00 0.00 0.00 0.00 0.00 0.00 0.00 0.00 0.00 0.00 0.02 0.04 0.05 0.05 0.03 0.03 0.03 0.02 0.03 0.02 0.00
0.00 0.00 0.00 0.00 0.00 0.00 0.00 0.00 0.00 0.00 0.00 0.00 0.00 0.00 0.00 0.00 0.00 0.00 0.00 0.00 0.00 0.00 0.00 0.00 0.00 0.00 0.00 0.00 0.00 0.00 0.00 0.00 0.01 0.02 0.02 0.01 0.02 0.02 0.01 0.00 0.00 0.00 0.00 0.00
0.00 0.00 0.00 0.00 0.00 0.00 0.00 0.00 0.00 0.00 0.00 0.00 0.00 0.00 0.00 0.00 0.00 0.00 0.00 0.00 0.00 0.00 0.00 0.00 0.00 0.00 0.00 0.00 0.00 0.00 0.00 0.00 0.00 0.00 0.00 0.00 0.00 0.00 0.00 0.00 0.00 0.00 0.00 0.00
0.00 0.00 0.00 0.00 0.00 0.00 0.00 0.00 0.00 0.00 0.00 0.00 0.00 0.00 0.00 0.00 0.00 0.00 0.00 0.00 0.00 0.00 0.00 0.00 0.00 0.00 0.00 0.00 0.00 0.00 0.00 0.00 0.00 0.00 0.00 0.00 0.00 0.00 0.00 0.00 0.00 0.00 0.00 0.00
0.00 0.00 0.00 0.00 0.00 0.00 0.00 0.00 0.00 0.00 0.00 0.00 0.00 0.00 0.00 0.00 0.00 0.00 0.00 0.00 0.00 0.00 0.00 0.00 0.00 0.00 0.00 0.00 0.00 0.00 0.00 0.00 0.00 0.00 0.00 0.00 0.00 0.00 0.00 0.00 0.00 0.00 0.00 0.00
0.00 0.00 0.00 0.00 0.00 0.00 0.00 0.00 0.00 0.00 0.00 0.00 0.00 0.00 0.00 0.00 0.00 0.00 0.00 0.00 0.00 0.00 0.00 0.00 0.00 0.00 0.00 0.00 0.00 0.00 0.00 0.00 0.00 0.00 0.00 0.00 0.00 0.00 0.00 0.00 0.00 0.00 0.00 0.00
0.00 0.00 0.00 0.00 0.00 0.00 0.00 0.00 0.00 0.00 0.00 0.00 0.00 0.00 0.00 0.00 0.00 0.00 0.00 0.00 0.00 0.00 0.00 0.00 0.00 0.00 0.00 0.00 0.00 0.00 0.00 0.00 0.00 0.00 0.00 0.00 0.00 0.00 0.00 0.00 0.00 0.00 0.00 0.00
0.00 0.00 0.00 0.00 0.00 0.00 0.00 0.00 0.00 0.00 0.00 0.00 0.00 0.00 0.00 0.00 0.00 0.00 0.00 0.00 0.00 0.00 0.00 0.00 0.00 0.00 0.00 0.00 0.00 0.00 0.00 0.00 0.00 0.00 0.00 0.00 0.00 0.00 0.00 0.00 0.00 0.00 0.00 0.00
0.00 0.00 0.00 0.00 0.00 0.00 0.00 0.00 0.00 0.00 0.00 0.00 0.00 0.00 0.00 0.00 0.00 0.00 0.00 0.00 0.00 0.00 0.00 0.00 0.00 0.00 0.00 0.00 0.00 0.00 0.00 0.00 0.00 0.00 0.00 0.00 0.00 0.00 0.00 0.00 0.00 0.00 0.00 0.00
0.00 0.00 0.00 0.00 0.00 0.00 0.00 0.00 0.00 0.00 0.00 0.00 0.00 0.00 0.00 0.00 0.00 0.00 0.00 0.00 0.00 0.00 0.00 0.00 0.00 0.00 0.00 0.00 0.00 0.00 0.00 0.00 0.00 0.00 0.00 0.00 0.00 0.00 0.00 0.00 0.00 0.00 0.00 0.00
0.00 0.00 0.00 0.00 0.00 0.00 0.00 0.00 0.00 0.00 0.00 0.00 0.00 0.00 0.00 0.00 0.00 0.00 0.00 0.00 0.00 0.00 0.00 0.00 0.00 0.00 0.00 0.00 0.00 0.00 0.00 0.00 0.00 0.00 0.00 0.00 0.00 0.00 0.00 0.00 0.00 0.00 0.00 0.00
0.00 0.00 0.00 0.00 0.00 0.00 0.00 0.00 0.00 0.00 0.00 0.00 0.00 0.00 0.00 0.00 0.00 0.00 0.00 0.00 0.00 0.00 0.00 0.00 0.00 0.00 0.00 0.00 0.00 0.00 0.00 0.00 0.00 0.00 0.00 0.00 0.00 0.00 0.00 0.00 0.00 0.00 0.00 0.00
MSLP
1005.93 1006.72 1006.64 1006.12 1006.57 1006.39 1006.31 1006.41 1006.16 1005.50 1006.04 1006.94 1007.51 1008.70 1009.43 1009.99 1010.62 1011.26 1011.83 1012.20 1012.58 1012.91 1013.33 1013.89 1014.50 1015.25 1016.08 1016.69 1017.22 1017.67 1018.16 1018.35 1018.87 1019.38 1019.67 1019.98 1019.90 1019.48 1019.92 1019.78 1019.27 1018.66 1017.81 1018.14
1006.89 1006.46 1005.56 1005.96 1005.81 1005.95 1005.80 1005.75 1005.10 1004.97 1005.50 1006.44 1007.72 1008.48 1009.11 1009.34 1009.60 1010.08 1010.72 1011.25 1011.43 1012.08 1012.71 1013.27 1013.97 1014.71 1015.41 1015.89 1016.47 1017.01 1017.37 1017.75 1018.36 1018.87 1018.98 1019.06 1019.21 1019.20 1019.55 1019.78 1019.11 1018.53 1017.83 1017.97
1006.64 1004.74 1005.13 1005.66 1005.20 1005.27 1004.92 1004.10 1003.51 1003.84 1005.63 1006.43 1008.06 1009.44 1009.43 1009.45 1009.74 1009.92 1010.27 1010.45 1010.72 1010.81 1011.56 1012.48 1013.27 1013.88 1014.56 1015.26 1015.74 1016.22 1016.60 1017.20 1017.75 1018.27 1018.63 1018.62 1018.80 1018.93 1019.58 1019.19 1019.07 1018.57 1018.02 1017.74
1006.30 1004.62 1004.85 1004.77 1004.62 1004.42 1004.26 1003.16 1003.15 1004.15 1005.48 1006.69 1007.18 1009.02 1009.15 1009.14 1009.37 1009.49 1009.59 1009.84 1009.94 1010.27 1010.75 1011.34 1012.08 1012.92 1013.63 1014.08 1014.57 1014.95 1015.74 1016.54 1017.12 1017.65 1018.26 1018.52 1018.86 1018.93 1018.64 1018.39 1018.00 1018.01 1017.99 1017.76
1004.98 1004.25 1004.19 1004.20 1003.46 1003.19 1002.96 1002.83 1003.22 1004.35 1005.59 1006.62 1007.64 1008.11 1007.65 1008.72 1009.03 1008.61 1008.53 1008.57 1008.74 1009.11 1009.56 1010.18 1010.78 1011.51 1012.16 1013.00 1013.78 1014.45 1015.15 1015.59 1015.95 1016.66 1017.29 1017.88 1018.47 1018.29 1018.23 1018.20 1017.92 1017.59 1017.68 1017.74
1004.78 1003.57 1003.48 1002.84 1002.33 1002.21 1002.30 1003.12 1004.51 1005.76 1006.80 1007.78 1007.27 1007.71 1007.71 1007.19 1006.06 1006.90 1007.12 1007.38 1007.81 1008.32 1008.85 1009.45 1009.92 1010.70 1011.72 1012.31 1012.75 1013.59 1014.57 1015.11 1015.68 1016.04 1016.64 1017.26 1017.89 1018.30 1018.51 1018.17 1018.11 1018.23 1017.65 1017.49
1004.87 1003.85 1002.96 1002.59 1002.54 1001.81 1002.75 1004.75 1006.23 1007.55 1008.23 1007.94 1006.86 1007.19 1005.58 1004.66 1004.77 1004.88 1005.51 1006.06 1006.76 1007.45 1008.17 1009.01 1009.64 1010.15 1010.90 1011.43 1011.92 1012.84 1013.52 1014.40 1014.97 1015.72 1016.30 1017.03 1017.61 1018.16 1018.65 1018.40 1018.28 1018.04 1017.55 1017.00
1005.35 1003.78 1002.28 1001.82 1001.73 1001.94 1003.25 1004.74 1006.74 1008.24 1009.17 1008.23 1006.90 1006.50 1003.91 1002.40 1002.66 1003.63 1004.22 1004.82 1006.02 1006.84 1007.50 1008.24 1008.73 1009.29 1009.86 1010.39 1011.18 1012.35 1013.14 1014.39 1015.34 1015.89 1016.26 1016.48 1017.06 1017.77 1017.73 1017.72 1017.70 1018.11 1017.97 1018.08
1004.84 1003.69 1001.87 1001.46 1001.32 1001.64 1003.14 1004.73 1005.63 1007.48 1008.96 1009.11 1007.45 1005.55 1003.66 1002.77 1003.47 1004.07 1004.75 1005.26 1005.76 1006.01 1006.82 1007.46 1008.25 1008.85 1009.53 1011.84 1012.87 1013.86 1013.75 1014.62 1014.92 1015.57 1016.28 1016.74 1017.04 1017.39 1017.49 1017.37 1017.70 1018.20 1018.26 1018.40
1004.02 1003.75 1002.33 1001.34 1001.31 1001.70 1002.36 1003.81 1006.02 1007.76 1008.96 1009.41 1008.05 1006.70 1005.57 1004.44 1004.43 1004.63 1005.03 1005.14 1005.51 1005.83 1006.42 1007.39 1008.22 1010.09 1010.90 1011.45 1012.23 1013.00 1014.08 1015.00 1016.09 1016.10 1017.74 1017.88 1019.69 1018.67 1017.59 1017.23 1017.69 1018.19 1017.69 1017.66
1003.41 1004.07 1002.75 1002.18 1002.02 1002.03 1003.03 1004.12 1005.73 1007.30 1008.45 1009.08 1008.79 1007.27 1005.25 1004.89 1004.84 1005.35 1005.98 1006.20 1005.87 1006.40 1006.90 1008.16 1009.29 1010.16 1010.76 1011.12 1011.61 1012.97 1013.74 1014.29 1015.18 1016.52 1016.27 1016.63 1019.24 1019.21 1018.65 1017.41 1016.85 1017.07 1017.45 1017.79
1002.58 1003.82 1003.78 1003.07 1002.05 1001.91 1002.13 1003.25 1004.93 1007.37 1008.49 1008.68 1008.17 1007.00 1005.57 1004.91 1004.89 1005.41 1006.55 1007.06 1007.08 1007.29 1007.47 1008.66 1009.68 1010.60 1011.30 1011.95 1012.77 1013.86 1013.80 1014.40 1015.48 1016.10 1016.12 1015.61 1016.74 1017.55 1017.60 1018.07 1017.39 1016.99 1016.94 1017.40
1001.76 1003.05 1003.90 1003.35 1002.71 1001.94 1002.28 1002.81 1003.89 1005.43 1006.90 1007.86 1008.12 1007.30 1006.05 1005.98 1005.93 1006.29 1006.90 1007.80 1008.13 1008.44 1008.97 1009.60 1010.33 1011.29 1012.25 1013.35 1013.87 1014.24 1014.67 1015.15 1015.47 1016.17 1015.98 1015.83 1014.73 1016.58 1016.94 1017.59 1017.71 1017.09 1016.88 1017.05
999.98 1002.00 1002.87 1003.03 1002.86 1002.24 1002.02 1002.16 1002.90 1004.14 1006.09 1006.89 1006.90 1006.74 1006.69 1006.47 1006.31 1006.87 1007.56 1008.35 1008.93 1009.48 1010.21 1010.91 1011.71 1012.87 1013.36 1013.80 1014.13 1014.81 1015.20 1015.12 1015.52 1015.86 1015.92 1015.55 1015.63 1016.22 1016.70 1017.31 1017.32 1017.00 1016.97 1016.90
999.71 1001.61 1002.19 1002.19 1001.82 1001.69 1001.55 1001.59 1002.08 1003.20 1003.85 1005.01 1005.20 1005.81 1006.08 1006.09 1006.30 1007.23 1007.80 1008.65 1009.60 1010.53 1011.46 1012.22 1012.94 1013.66 1013.86 1014.15 1014.41 1014.62 1014.93 1015.33 1015.37 1015.68 1015.80 1015.80 1015.91 1016.34 1016.83 1017.13 1016.65 1016.71 1016.55 1016.47
999.73 1000.76 1001.72 1002.16 1001.47 1001.42 1001.19 1000.94 1001.35 1002.14 1002.70 1003.29 1004.07 1005.09 1005.05 1005.70 1005.97 1007.38 1008.00 1008.87 1010.02 1010.87 1011.95 1012.77 1013.28 1013.80 1013.88 1013.92 1014.17 1014.48 1014.70 1014.96 1015.25 1015.59 1015.78 1016.01 1016.15 1016.46 1016.82 1016.84 1016.78 1016.54 1016.38 1016.23
1000.33 1000.77 1002.09 1002.13 1001.39 1001.34 1001.10 1000.32 1000.46 1001.02 1001.59 1002.19 1003.48 1004.03 1004.97 1006.16 1006.48 1007.28 1008.22 1008.86 1009.94 1010.92 1011.82 1012.67 1013.23 1013.63 1014.23 1014.54 1014.63 1015.09 1015.40 1015.61 1015.87 1016.22 1016.57 1016.82 1017.08 1017.09 1016.79 1016.51 1016.44 1016.49 1016.46 1016.18
1000.03 1000.92 1001.22 1002.28 1001.94 1001.13 999.51 999.16 999.61 1000.44 1000.95 1001.47 1002.55 1003.43 1004.71 1005.89 1006.84 1007.79 1008.13 1008.71 1010.39 1011.04 1011.69 1012.75 1013.56 1014.14 1014.71 1014.92 1015.21 1015.56 1015.98 1016.32 1016.72 1017.11 1017.29 1017.36 1017.37 1017.40 1017.29 1017.15 1017.03 1016.77 1016.33 1016.06
999.51 1000.91 1002.07 1002.49 1001.98 1000.93 999.67 998.99 999.08 999.98 1000.95 1001.47 1002.86 1003.88 1005.66 1006.37 1007.21 1009.22 1009.24 1009.09 1010.00 1010.88 1011.81 1013.13 1013.81 1014.46 1014.98 1015.31 1015.76 1016.20 1016.81 1017.29 1017.69 1017.90 1017.82 1017.63 1017.37 1017.27 1017.15 1017.01 1016.96 1016.70 1016.54 1016.27
999.45 1000.23 1001.28 1002.66 1002.34 1001.12 999.26 998.45 998.58 999.73 1001.12 1002.03 1002.33 1003.89 1005.10 1005.65 1008.14 1009.80 1010.04 1010.34 1011.27 1011.59 1012.69 1013.34 1014.10 1014.78 1015.22 1015.81 1016.09 1016.59 1017.22 1017.47 1017.88 1018.06 1018.17 1018.12 1018.07 1018.04 1017.78 1017.37 1016.95 1016.39 1015.98 1015.68
1000.42 1001.18 1001.84 1002.26 1001.70 1000.43 998.83 998.13 998.57 999.97 1001.23 1001.81 1002.28 1003.09 1004.64 1005.74 1006.35 1008.94 1010.37 1011.31 1011.68 1012.49 1013.51 1014.27 1014.92 1015.65 1016.09 1016.45 1016.93 1017.67 1018.06 1018.44 1018.61 1018.56 1018.43 1018.19 1017.91 1017.57 1017.15 1016.84 1016.45 1016.11 1015.81 1015.37
1000.06 1001.12 1001.75 1001.61 1000.94 999.96 998.31 998.49 998.79 999.33 1000.32 1000.76 1002.80 1003.78 1005.32 1006.39 1007.72 1009.40 1010.73 1011.40 1012.44 1013.36 1014.64 1015.39 1015.92 1016.50 1016.56 1017.04 1017.45 1018.05 1018.42 1018.65 1018.52 1018.35 1018.12 1017.79 1017.46 1017.21 1016.85 1016.62 1016.18 1015.75 1015.46 1015.10
999.24 999.33 1000.02 1000.16 999.55 998.78 998.37 998.08 997.86 998.24 999.80 1001.43 1001.85 1004.08 1004.82 1006.48 1008.15 1009.59 1010.87 1012.01 1013.00 1014.10 1014.82 1015.87 1016.34 1016.76 1017.28 1017.52 1017.86 1018.37 1018.87 1018.72 1018.57 1018.43 1018.24 1018.01 1017.56 1017.15 1016.77 1016.49 1016.07 1015.70 1015.24 1014.97
998.52 998.39 999.02 999.73 999.22 998.90 998.67 998.39 998.44 998.49 999.54 1000.91 1002.14 1003.85 1005.10 1006.85 1008.47 1009.91 1010.83 1012.22 1013.57 1014.49 1015.27 1016.25 1016.22 1017.10 1017.67 1018.06 1018.29 1018.72 1018.87 1018.75 1018.66 1018.49 1018.24 1017.74 1017.44 1017.11 1016.59 1016.15 1015.96 1015.79 1015.63 1015.54
998.40 998.03 999.19 999.90 999.92 999.14 999.57 999.05 999.24 1000.16 1000.79 1002.22 1003.73 1004.43 1005.59 1006.87 1009.11 1010.20 1011.50 1012.75 1013.80 1014.65 1015.41 1015.51 1016.25 1016.98 1017.92 1018.27 1018.67 1018.76 1018.72 1018.48 1018.31 1018.11 1017.98 1017.78 1017.53 1017.22 1016.79 1016.54 1016.73 1016.63 1016.58 1016.42
998.39 998.33 999.05 999.69 999.27 999.06 1000.46 1000.26 1000.27 1000.50 1001.77 1002.60 1003.57 1005.81 1007.04 1007.66 1009.34 1010.73 1012.00 1012.97 1014.03 1014.90 1015.58 1016.00 1016.54 1017.27 1018.12 1018.51 1018.73 1018.64 1018.59 1018.34 1018.35 1018.32 1018.22 1018.09 1017.86 1017.67 1017.45 1017.10 1017.11 1017.07 1016.93 1016.75
Thickness
5843 5817 5806 5827 5831 5836 5832 5823 5820 5843 5854 5839 5833 5824 5826 5831 5829 5822 5818 5817 5817 5816 5819 5818 5814 5808 5799 5792 5788 5785 5780 5778 5774 5768 5764 5760 5759 5766 5762 5764 5765 5771 5778 5773
5820 5806 5841 5843 5844 5837 5831 5820 5823 5850 5857 5842 5829 5823 5829 5834 5834 5834 5828 5823 5824 5822 5820 5820 5818 5813 5806 5803 5799 5793 5791 5787 5781 5775 5772 5770 5768 5769 5764 5762 5768 5772 5778 5775
5806 5839 5853 5840 5838 5831 5830 5836 5842 5848 5848 5843 5827 5806 5814 5829 5834 5836 5836 5837 5835 5834 5826 5822 5820 5818 5814 5809 5806 5803 5799 5793 5787 5781 5776 5775 5773 5769 5764 5766 5765 5770 5772 5772
5816 5849 5843 5840 5833 5840 5815 5868 5866 5856 5831 5798 5836 5771 5802 5820 5822 5831 5836 5838 5841 5840 5839 5834 5829 5822 5819 5818 5817 5815 5808 5799 5793 5787 5778 5773 5767 5764 5772 5776 5777 5773 5770 5771
5822 5842 5837 5832 5844 5856 5848 5876 5865 5856 5836 5823 5821 5790 5816 5818 5811 5828 5839 5846 5852 5853 5851 5844 5840 5836 5832 5827 5820 5816 5809 5805 5803 5796 5788 5778 5769 5772 5773 5774 5777 5777 5773 5770
5828 5863 5852 5852 5867 5869 5880 5866 5840 5829 5811 5784 5816 5803 5798 5814 5837 5839 5848 5853 5856 5856 5855 5852 5852 5847 5835 5833 5828 5821 5812 5806 5802 5799 5791 5782 5773 5766 5764 5768 5767 5766 5772 5767
5819 5833 5854 5865 5845 5867 5852 5817 5772 5780 5773 5778 5826 5806 5822 5852 5861 5862 5857 5860 5860 5858 5855 5851 5849 5847 5842 5837 5834 5825 5818 5809 5804 5796 5790 5780 5771 5764 5759 5761 5760 5760 5766 5767
5783 5790 5843 5866 5853 5842 5841 5821 5775 5766 5756 5782 5818 5795 5840 5877 5885 5879 5877 5874 5866 5861 5860 5855 5854 5853 5849 5846 5840 5827 5817 5805 5795 5790 5784 5783 5773 5765 5765 5764 5762 5753 5752 5747
5780 5799 5858 5864 5871 5862 5838 5818 5833 5794 5791 5771 5795 5836 5863 5872 5866 5866 5862 5863 5862 5869 5864 5862 5858 5854 5850 5830 5824 5809 5807 5800 5795 5789 5770 5763 5761 5760 5761 5762 5754 5748 5739 5735
5817 5795 5837 5860 5869 5864 5847 5854 5807 5783 5775 5764 5784 5805 5805 5842 5847 5856 5851 5858 5865 5869 5867 5861 5855 5840 5836 5832 5827 5822 5810 5794 5779 5763 5754 5738 5730 5738 5751 5755 5744 5740 5744 5737
5818 5803 5817 5844 5829 5830 5828 5819 5812 5801 5784 5764 5761 5783 5834 5842 5847 5847 5842 5849 5858 5859 5859 5850 5842 5837 5834 5835 5829 5814 5806 5793 5782 5770 5767 5753 5728 5732 5737 5747 5746 5746 5744 5737
5821 5792 5787 5809 5844 5853 5848 5831 5820 5775 5784 5780 5775 5784 5844 5853 5856 5854 5848 5845 5847 5850 5855 5846 5838 5831 5824 5820 5812 5798 5798 5791 5778 5767 5765 5760 5743 5742 5741 5739 5736 5741 5738 5732
5820 5783 5779 5786 5809 5835 5828 5837 5829 5810 5795 5784 5770 5782 5843 5843 5846 5849 5845 5841 5839 5840 5838 5835 5828 5820 5812 5802 5794 5790 5785 5778 5774 5760 5756 5756 5767 5747 5740 5731 5724 5730 5729 5722
5841 5794 5791 5782 5789 5819 5817 5830 5836 5819 5778 5788 5788 5807 5820 5830 5837 5838 5836 5835 5834 5830 5826 5819 5815 5803 5799 5796 5791 5779 5774 5772 5765 5758 5755 5754 5752 5744 5733 5722 5718 5718 5713 5710
5831 5791 5796 5809 5823 5828 5832 5830 5832 5819 5819 5803 5818 5811 5816 5827 5834 5832 5835 5831 5827 5820 5811 5805 5797 5791 5792 5789 5783 5775 5766 5761 5759 5755 5751 5747 5740 5731 5721 5712 5712 5709 5707 5703
5820 5794 5806 5800 5824 5822 5821 5830 5834 5829 5829 5830 5824 5816 5837 5836 5837 5829 5833 5830 5821 5814 5806 5798 5790 5783 5784 5783 5778 5773 5766 5759 5754 5749 5744 5739 5731 5721 5710 5705 5703 5700 5692 5687
5795 5798 5783 5783 5815 5811 5795 5815 5827 5831 5837 5835 5806 5828 5831 5825 5828 5822 5823 5826 5817 5811 5803 5796 5789 5784 5776 5772 5769 5759 5753 5747 5740 5732 5723 5713 5704 5698 5697 5696 5691 5686 5681 5679
5792 5792 5792 5777 5791 5764 5820 5842 5844 5835 5840 5840 5835 5834 5832 5821 5820 5820 5825 5820 5807 5803 5799 5791 5783 5775 5766 5759 5751 5744 5736 5728 5719 5709 5701 5695 5689 5684 5681 5677 5673 5671 5670 5666
5804 5782 5767 5758 5759 5792 5819 5834 5836 5830 5826 5839 5824 5825 5815 5817 5816 5798 5811 5816 5808 5800 5793 5781 5774 5766 5756 5748 5740 5731 5719 5709 5699 5691 5686 5684 5683 5679 5675 5670 5665 5662 5658 5654
5795 5792 5782 5757 5753 5747 5804 5842 5855 5843 5794 5827 5833 5823 5819 5822 5786 5782 5799 5801 5791 5789 5779 5772 5764 5755 5749 5740 5733 5722 5712 5704 5695 5689 5683 5676 5671 5666 5664 5663 5660 5658 5655 5652
5767 5765 5764 5749 5757 5773 5814 5841 5848 5785 5791 5824 5834 5832 5825 5812 5814 5798 5793 5784 5782 5774 5764 5756 5747 5739 5733 5727 5719 5709 5700 5691 5685 5680 5674 5670 5667 5664 5661 5656 5652 5650 5647 5644
5764 5751 5749 5748 5753 5759 5832 5835 5809 5819 5829 5834 5821 5816 5807 5805 5800 5790 5782 5777 5769 5759 5748 5740 5732 5725 5721 5715 5707 5696 5688 5681 5677 5673 5669 5665 5661 5656 5653 5648 5646 5643 5640 5638
5762 5773 5765 5768 5768 5807 5825 5833 5841 5841 5833 5823 5829 5815 5813 5802 5792 5783 5773 5763 5754 5744 5737 5727 5721 5714 5706 5701 5693 5683 5674 5669 5665 5660 5655 5650 5647 5644 5642 5639 5637 5635 5633 5630
5786 5791 5774 5780 5797 5808 5818 5824 5831 5838 5835 5831 5825 5814 5808 5793 5783 5772 5765 5754 5741 5733 5724 5715 5713 5703 5694 5685 5678 5669 5663 5658 5652 5647 5643 5642 5638 5635 5633 5631 5628 5624 5619 5615
5772 5787 5771 5765 5782 5799 5801 5813 5817 5814 5817 5811 5805 5803 5795 5786 5768 5760 5749 5738 5731 5724 5716 5714 5707 5696 5682 5674 5664 5659 5653 5648 5644 5640 5638 5633 5630 5625 5621 5617 5610 5605 5598 5595
5769 5767 5760 5756 5781 5790 5785 5797 5806 5807 5800 5799 5796 5781 5775 5771 5756 5745 5734 5728 5719 5710 5704 5699 5693 5682 5669 5660 5653 5649 5643 5639 5634 5629 5624 5620 5615 5609 5605 5600 5594 5589 5583 5577